SCP
0 0 0 -0 -0 -0 -0 -0 -0 0 0 0 0 0 0 -0 -0 -0 -0 -0 -0 -0 -0 -0 -0 -0 -0 -0 -0 0 0 0 0 0 0 0 0 -0 0 0 0 0 0
-0 0 -0 -0 -0 -0 -0 -0 0 -0 0 0 0 0 -0 -0 -0 -0 -0 -0 -0 -0 -0 -0 -0 -0 -0 -0 0 0 0 0 0 0 0 0 0 -0 -0 0 0 0 0
-0 0 -0 0 -0 -0 -0 -0 -0 -0 0 -0 0 -0 -0 -0 -0 -0 -0 -0 -0 -0 -0 -0 -0 0 0 0 0 0 0 0 0 0 0 0 0 0 0 0 0 0 0
-0 -0 -0 0 -0 -0 -0 -0 -0 -0 -0 -0 0 -0 -0 -0 -0 -0 -0 -0 -0 -0 -0 -0 0 0 0 0 0 0 0 0 0 0 0 0 0 0 0 0 0 0 0
-0 -0 -0 -0 -0 -0 -0 -0 -0 -0 -0 -0 -0 -0 -0 -0 -0 -0 -0 -0 -0 -0 -0 0 0 0 0 0 0 0 0 0 0 0 0 0 0 0 0 0 0 0 0
-0 -0 -0 -0 -0 -0 -0 -0 -0 -0 -0 -0 -0 -0 -0 -0 -0 -0 -0 0 -0 -0 -0 0 0 0 0 0 0 0 0 0 0 0 0 0 0 0 0 0 0 0 0
-0 -0 -0 -0 -0 -0 -0 -0 -0 -0 -0 -0 0 0 0 0 -0 -0 0 0 0 0 0 0 0 0 0 0 0 0 0 0 0 0 0 0 0 0 0 0 0 0 0
-0 -0 -0 -0 -0 -0 -0 -0 -0 0 0 0 0 0 0 0 0 0 0 0 0 0 0 0 0 0 0 0 0 0 0 0 0 0 0 0 0 0 0 0 0 0 0
0 0 0 0 0 0 0 0 0 0 0 0 0 0 0 0 0 0 0 0 0 0 0 0 0 0 0 0 0 0 0 0 0 0 0 0 0 0 0 0 0 0 0
0 0 0 0 -0 0 0 0 0 0 0 0 0 0 -0 -0 0 0 0 0 0 0 0 0 0 0 0 0 0 0 0 0 0 0 0 0 0 0 0 0 0 0 0
0 0 0 0 0 0 0 -0 0 0 0 0 0 0 -0 0 0 0 0 0 0 0 0 0 0 0 0 0 0 0 0 0 0 0 0 0 0 0 0 0 0 0 0
0 0 0 0 0 0 0 -0 0 0 0 0 0 0 0 0 0 0 0 0 0 0 0 0 0 0 0 0 0 0 0 0 0 0 0 0 0 0 0 0 0 0 0
0 0 0 0 0 0 0 0 0 0 0 0 0 0 0 0 0 0 0 0 0 0 0 0 0 0 0 0 0 0 0 0 0 0 0 0 0 0 0 0 0 0 0
0 0 0 0 0 0 0 -0 0 0 0 0 0 0 0 0 0 0 0 0 0 0 0 0 0 0 0 0 0 0 0 0 0 0 0 0 0 0 0 0 0 0 0
0 0 0 0 0 0 0 0 0 0 0 0 0 0 0 0 0 0 0 0 0 0 0 0 0 0 0 0 0 0 0 0 0 0 0 0 0 0 0 0 0 0 0
0 0 0 0 0 0 0 0 0 0 0 0 0 0 0 0 0 0 0 0 0 0 0 0 0 0 0 0 0 0 0 0 0 0 0 0 0 0 0 0 0 0 0
0 0 0 0 0 0 0 0 0 0 0 0 0 0 0 0 0 0 0 0 0 0 0 0 0 0 0 0 0 0 0 0 0 0 0 0 0 0 0 0 0 0 0
0 0 0 0 0 0 0 0 0 0 0 0 0 0 0 0 0 0 0 0 0 0 0 0 0 0 0 0 0 0 0 0 0 0 0 0 0 0 0 0 0 0 0
0 0 0 0 0 0 0 0 0 0 0 0 0 0 0 0 0 0 0 0 0 0 0 0 0 0 0 0 0 0 0 0 0 0 0 0 0 0 0 0 0 0 0
0 0 0 0 0 0 0 0 0 0 0 0 0 0 0 0 0 0 0 0 0 0 0 0 0 0 0 0 0 0 0 0 0 0 0 0 0 0 0 0 0 0 0
0 0 0 0 0 0 0 0 0 0 0 0 0 0 0 0 0 0 0 0 0 0 0 0 0 0 0 0 0 0 0 0 0 0 0 0 0 0 0 0 0 0 0
0 0 0 0 0 0 0 0 0 0 0 0 0 0 0 0 0 0 0 0 0 0 0 0 0 0 0 0 0 0 0 0 0 0 0 0 0 0 0 0 0 0 0
0 0 0 0 0 0 0 0 0 0 0 0 0 0 0 0 0 0 0 0 0 0 0 0 0 0 0 0 0 0 0 0 0 0 0 0 0 0 0 0 0 0 0
0 0 0 0 0 0 0 0 0 0 0 0 0 0 0 0 0 0 0 0 0 0 0 0 0 0 0 0 0 0 0 0 0 0 0 0 0 0 0 0 0 0 0
0 0 0 0 0 0 0 0 0 0 0 0 0 0 0 0 0 0 0 0 0 0 0 0 0 0 0 0 0 0 0 0 0 0 0 0 0 0 0 0 0 0 0
0 0 0 0 0 0 0 0 0 0 0 0 0 0 0 0 0 0 0 0 0 0 0 0 0 0 0 0 0 0 0 0 0 0 0 0 0 0 0 0 0 0 0
Wind_Speed_500mb
17 12 16 15 18 20 18 20 21 23 25 28 28 29 28 28 28 30 26 27 22 26 23 25 22 27 24 26 29 32 34 36 41 38 34 39 40 46 46 45 44 42 41
21 17 17 14 16 20 20 20 22 23 26 28 28 28 25 24 25 22 25 24 27 26 28 23 25 26 26 28 31 33 37 39 38 35 35 34 40 39 39 41 43 40 39
16 17 16 12 18 19 23 22 23 24 27 29 28 26 24 24 23 24 27 26 31 27 23 22 26 28 29 27 31 33 36 36 30 30 29 32 38 38 38 38 41 45 45
16 11 14 13 18 21 24 24 22 24 25 26 25 25 24 24 24 21 23 24 22 21 17 22 26 31 28 26 29 30 35 29 26 25 33 36 34 34 34 33 32 35 39
19 14 10 11 16 18 22 22 20 21 23 24 23 22 21 21 21 23 20 18 15 18 18 24 26 24 20 22 26 30 30 26 26 25 26 22 29 27 30 26 26 28 31
17 12 9 7 13 18 21 20 17 19 22 24 24 24 20 16 19 20 20 18 15 18 12 21 25 14 17 23 24 30 26 22 24 20 20 24 19 21 27 24 24 17 19
16 11 8 5 10 16 21 19 17 19 21 23 24 24 20 18 16 18 19 15 16 16 20 19 17 13 19 23 23 24 18 20 16 18 23 28 29 28 22 23 21 18 23
13 6 6 4 9 15 21 16 16 18 20 22 24 25 21 19 18 15 16 11 11 15 15 14 12 19 21 22 21 18 12 12 17 18 23 31 34 30 25 22 23 21 24
12 8 6 5 10 17 22 17 18 19 21 24 25 25 22 19 16 11 10 9 11 12 11 13 19 17 18 16 14 7 9 13 10 21 32 28 23 26 23 20 23 29 32
14 8 3 5 15 18 21 17 17 18 20 22 24 25 24 20 18 12 9 7 7 12 6 10 14 13 10 8 7 6 11 11 14 18 27 23 18 25 24 29 33 27 24
13 6 2 4 11 21 19 16 13 16 17 20 22 23 24 23 20 16 9 3 5 6 3 8 9 13 8 3 3 7 10 7 9 14 24 23 18 17 21 26 23 22 24
13 6 4 9 10 17 20 18 17 18 21 21 22 22 22 19 17 15 10 7 4 5 9 5 5 8 7 10 8 6 11 10 6 7 13 25 18 17 15 18 16 21 23
13 9 7 12 13 18 16 16 16 19 21 22 23 23 20 19 19 17 14 11 8 8 8 4 8 8 10 10 12 14 13 13 5 6 8 14 18 16 14 16 15 19 20
14 12 10 14 15 15 15 15 16 18 20 23 24 24 24 20 18 14 9 6 6 8 13 14 16 11 11 11 11 11 10 12 6 10 6 6 7 12 10 13 12 17 20
18 12 14 18 17 16 17 17 16 18 21 25 27 28 27 25 21 16 13 7 6 7 17 22 24 15 11 8 7 6 9 10 11 13 16 11 10 8 8 7 11 14 18
23 21 19 21 19 17 19 23 23 25 27 28 28 30 30 28 23 19 14 12 6 9 19 22 21 14 11 7 7 14 17 16 13 15 20 20 14 12 10 7 12 11 16
26 25 23 20 21 21 20 20 22 24 27 33 34 35 37 35 31 24 16 10 14 12 18 26 27 22 17 16 18 18 18 20 19 18 18 25 23 21 19 16 17 11 10
21 29 30 29 27 28 29 28 28 32 32 35 36 39 41 42 38 30 19 12 19 17 15 28 30 32 29 27 23 24 24 21 23 22 22 22 29 28 26 21 19 21 12
30 30 36 29 30 33 32 33 36 37 36 38 41 40 42 41 41 34 25 22 24 24 17 26 33 36 39 35 33 31 30 28 27 28 24 21 26 31 29 29 26 24 21
31 39 31 35 33 34 36 36 39 40 40 42 42 43 43 45 44 37 28 24 25 24 26 30 34 38 41 43 43 39 36 35 32 33 32 29 25 30 34 37 34 32 31
27 28 25 31 33 35 35 36 42 42 44 46 44 44 46 49 48 41 34 28 28 28 30 36 40 40 45 47 50 47 44 44 42 37 37 36 31 32 34 40 40 36 28
22 24 26 27 29 35 40 42 41 45 51 49 44 41 43 45 48 45 40 37 36 32 33 43 50 49 53 50 50 48 40 46 50 47 45 45 39 34 36 41 42 40 38
18 20 27 29 28 32 34 39 41 49 54 53 50 47 46 45 45 45 44 41 41 40 40 44 52 55 59 59 56 47 18 29 30 46 53 50 46 39 36 40 43 44 44
31 16 13 29 35 36 35 40 42 47 53 54 53 52 50 51 39 44 48 48 49 50 49 46 51 59 59 63 62 66 68 57 35 26 42 45 46 45 39 38 42 45 46
38 35 31 23 15 16 25 36 41 43 48 50 46 46 45 59 55 50 51 54 57 57 56 53 51 57 61 65 67 70 69 78 71 59 43 48 54 51 53 52 49 47 47
30 30 30 30 29 27 25 25 30 37 44 50 53 54 56 58 65 59 54 55 59 62 61 60 56 56 62 64 69 73 76 74 80 85 72 68 68 65 61 62 60 57 51
Wind_Direction_500mb
177 171 106 70 44 37 35 34 32 26 23 26 22 27 45 50 54 50 44 35 24 39 48 42 35 38 50 60 67 71 68 66 67 58 48 36 44 49 56 57 54 49 45
183 162 105 68 41 36 33 32 31 25 25 25 23 32 42 48 61 57 49 35 43 34 48 39 38 44 61 65 75 76 74 68 64 59 54 44 50 51 53 52 51 46 42
173 142 114 72 43 36 30 30 29 26 24 24 19 31 42 50 52 56 50 43 49 39 40 31 41 47 57 68 77 79 75 65 64 61 63 64 63 58 56 59 61 60 55
157 146 121 63 38 32 26 26 26 26 25 27 23 29 38 48 49 65 60 49 50 35 29 38 50 55 55 67 78 84 75 72 67 74 80 71 63 55 52 54 57 55 57
160 155 114 51 32 24 23 23 26 26 26 27 27 33 39 48 58 56 64 49 33 51 20 39 57 63 65 79 87 87 85 73 81 83 81 68 56 43 46 45 52 54 60
173 169 127 52 23 14 14 15 24 25 25 26 23 28 32 41 66 54 65 49 32 36 21 44 60 54 72 87 92 90 94 82 81 71 57 46 27 19 40 27 29 32 54
174 189 144 61 21 5 6 10 19 22 26 26 25 25 30 26 45 61 66 52 26 37 41 47 55 52 80 90 93 97 101 81 70 54 34 18 9 30 36 38 34 18 39
194 159 129 49 10 359 0 8 17 25 28 26 24 26 32 35 35 56 71 64 32 44 51 42 45 63 80 87 91 102 104 79 65 43 27 51 59 63 55 54 41 28 31
195 146 124 59 4 356 360 10 16 23 25 23 24 25 30 37 37 35 65 54 50 68 52 26 34 77 91 94 90 93 99 93 77 78 59 53 53 39 37 30 36 52 67
174 147 94 8 351 360 5 11 18 23 24 23 23 24 24 26 32 28 14 56 49 81 53 28 44 85 94 111 82 10 21 74 78 72 68 46 36 41 48 51 65 71 72
171 141 0 351 344 348 5 8 19 20 20 21 23 22 21 19 11 17 18 13 51 44 63 55 54 89 93 106 355 332 353 48 66 73 79 67 30 48 49 67 70 65 64
180 177 269 295 330 350 349 358 7 11 15 15 15 17 14 16 14 16 22 6 351 325 338 347 101 135 166 227 257 286 308 305 306 88 82 85 41 24 61 72 69 70 74
198 200 249 282 316 341 350 349 3 5 5 7 9 7 9 11 10 11 14 2 356 351 4 293 222 252 265 275 251 252 256 298 297 123 90 76 65 38 51 74 65 84 86
221 210 240 264 297 328 340 346 354 1 357 359 359 1 0 1 2 360 354 357 324 294 287 268 272 272 254 266 270 265 270 292 295 185 162 280 106 51 40 72 67 91 85
237 235 245 261 287 313 316 331 337 342 351 352 351 353 354 350 349 345 337 307 247 273 265 272 275 266 256 246 255 272 290 290 285 244 224 233 281 146 67 104 73 86 79
238 237 232 262 292 313 325 330 332 336 343 342 346 348 348 343 343 331 320 302 275 222 259 269 280 284 277 260 272 297 295 296 296 281 245 232 227 240 188 111 118 98 96
258 246 241 237 261 279 286 297 307 317 330 332 333 336 341 341 334 328 310 297 289 271 252 252 265 277 279 277 284 294 303 310 312 305 273 243 220 204 214 192 161 137 122
239 247 250 244 253 280 289 293 297 305 319 319 323 323 326 330 332 323 305 280 279 282 239 252 259 269 273 273 275 281 284 293 301 310 301 264 246 233 212 207 190 159 158
233 260 262 253 267 274 274 283 290 297 302 301 307 309 313 316 321 319 303 282 274 276 266 256 254 256 263 268 266 269 278 277 286 294 298 285 254 243 236 223 204 194 163
242 253 263 271 268 269 270 271 275 283 294 293 294 298 301 303 303 314 301 289 275 260 260 262 265 257 260 261 263 263 262 262 266 281 284 289 271 250 241 233 234 204 199
261 262 259 271 279 277 275 276 280 286 286 290 294 295 295 295 296 302 306 294 288 272 254 256 261 255 257 256 260 254 254 257 254 260 268 271 270 256 240 238 236 235 227
271 268 271 264 277 280 284 286 287 288 289 294 294 287 286 287 288 289 295 298 304 298 270 250 257 260 258 259 258 255 256 255 252 254 257 258 259 257 248 243 241 242 240
245 251 261 259 256 255 271 277 280 282 286 294 297 296 294 288 281 278 280 284 292 290 292 271 264 259 258 263 251 248 250 242 245 244 249 253 252 251 250 247 245 244 244
59 44 289 275 272 273 258 260 266 278 287 293 298 299 299 297 291 280 277 278 284 285 285 293 271 264 259 260 254 247 248 252 257 258 250 250 245 245 247 249 250 249 247
53 48 44 31 4 314 291 283 279 274 279 286 289 286 280 287 294 287 282 282 282 283 284 283 282 268 264 262 261 257 257 253 252 252 262 252 250 256 255 251 248 249 253
44 40 34 25 14 4 346 323 302 293 291 290 290 288 289 287 291 295 289 283 281 283 282 282 282 276 270 265 263 262 258 255 258 254 254 257 261 264 262 259 254 253 252
Wind_Speed_850mb
17 12 16 15 18 20 18 20 21 23 25 28 28 29 28 28 28 30 26 27 22 26 23 25 22 27 24 26 29 32 34 36 41 38 34 39 40 46 46 45 44 42 41
21 17 17 14 16 20 20 20 22 23 26 28 28 28 25 24 25 22 25 24 27 26 28 23 25 26 26 28 31 33 37 39 38 35 35 34 40 39 39 41 43 40 39
16 17 16 12 18 19 23 22 23 24 27 29 28 26 24 24 23 24 27 26 31 27 23 22 26 28 29 27 31 33 36 36 30 30 29 32 38 38 38 38 41 45 45
16 11 14 13 18 21 24 24 22 24 25 26 25 25 24 24 24 21 23 24 22 21 17 22 26 31 28 26 29 30 35 29 26 25 33 36 34 34 34 33 32 35 39
19 14 10 11 16 18 22 22 20 21 23 24 23 22 21 21 21 23 20 18 15 18 18 24 26 24 20 22 26 30 30 26 26 25 26 22 29 27 30 26 26 28 31
17 12 9 7 13 18 21 20 17 19 22 24 24 24 20 16 19 20 20 18 15 18 12 21 25 14 17 23 24 30 26 22 24 20 20 24 19 21 27 24 24 17 19
16 11 8 5 10 16 21 19 17 19 21 23 24 24 20 18 16 18 19 15 16 16 20 19 17 13 19 23 23 24 18 20 16 18 23 28 29 28 22 23 21 18 23
13 6 6 4 9 15 21 16 16 18 20 22 24 25 21 19 18 15 16 11 11 15 15 14 12 19 21 22 21 18 12 12 17 18 23 31 34 30 25 22 23 21 24
12 8 6 5 10 17 22 17 18 19 21 24 25 25 22 19 16 11 10 9 11 12 11 13 19 17 18 16 14 7 9 13 10 21 32 28 23 26 23 20 23 29 32
14 8 3 5 15 18 21 17 17 18 20 22 24 25 24 20 18 12 9 7 7 12 6 10 14 13 10 8 7 6 11 11 14 18 27 23 18 25 24 29 33 27 24
13 6 2 4 11 21 19 16 13 16 17 20 22 23 24 23 20 16 9 3 5 6 3 8 9 13 8 3 3 7 10 7 9 14 24 23 18 17 21 26 23 22 24
13 6 4 9 10 17 20 18 17 18 21 21 22 22 22 19 17 15 10 7 4 5 9 5 5 8 7 10 8 6 11 10 6 7 13 25 18 17 15 18 16 21 23
13 9 7 12 13 18 16 16 16 19 21 22 23 23 20 19 19 17 14 11 8 8 8 4 8 8 10 10 12 14 13 13 5 6 8 14 18 16 14 16 15 19 20
14 12 10 14 15 15 15 15 16 18 20 23 24 24 24 20 18 14 9 6 6 8 13 14 16 11 11 11 11 11 10 12 6 10 6 6 7 12 10 13 12 17 20
18 12 14 18 17 16 17 17 16 18 21 25 27 28 27 25 21 16 13 7 6 7 17 22 24 15 11 8 7 6 9 10 11 13 16 11 10 8 8 7 11 14 18
23 21 19 21 19 17 19 23 23 25 27 28 28 30 30 28 23 19 14 12 6 9 19 22 21 14 11 7 7 14 17 16 13 15 20 20 14 12 10 7 12 11 16
26 25 23 20 21 21 20 20 22 24 27 33 34 35 37 35 31 24 16 10 14 12 18 26 27 22 17 16 18 18 18 20 19 18 18 25 23 21 19 16 17 11 10
21 29 30 29 27 28 29 28 28 32 32 35 36 39 41 42 38 30 19 12 19 17 15 28 30 32 29 27 23 24 24 21 23 22 22 22 29 28 26 21 19 21 12
30 30 36 29 30 33 32 33 36 37 36 38 41 40 42 41 41 34 25 22 24 24 17 26 33 36 39 35 33 31 30 28 27 28 24 21 26 31 29 29 26 24 21
31 39 31 35 33 34 36 36 39 40 40 42 42 43 43 45 44 37 28 24 25 24 26 30 34 38 41 43 43 39 36 35 32 33 32 29 25 30 34 37 34 32 31
27 28 25 31 33 35 35 36 42 42 44 46 44 44 46 49 48 41 34 28 28 28 30 36 40 40 45 47 50 47 44 44 42 37 37 36 31 32 34 40 40 36 28
22 24 26 27 29 35 40 42 41 45 51 49 44 41 43 45 48 45 40 37 36 32 33 43 50 49 53 50 50 48 40 46 50 47 45 45 39 34 36 41 42 40 38
18 20 27 29 28 32 34 39 41 49 54 53 50 47 46 45 45 45 44 41 41 40 40 44 52 55 59 59 56 47 18 29 30 46 53 50 46 39 36 40 43 44 44
31 16 13 29 35 36 35 40 42 47 53 54 53 52 50 51 39 44 48 48 49 50 49 46 51 59 59 63 62 66 68 57 35 26 42 45 46 45 39 38 42 45 46
38 35 31 23 15 16 25 36 41 43 48 50 46 46 45 59 55 50 51 54 57 57 56 53 51 57 61 65 67 70 69 78 71 59 43 48 54 51 53 52 49 47 47
30 30 30 30 29 27 25 25 30 37 44 50 53 54 56 58 65 59 54 55 59 62 61 60 56 56 62 64 69 73 76 74 80 85 72 68 68 65 61 62 60 57 51
Wind_Direction_850mb
177 171 106 70 44 37 35 34 32 26 23 26 22 27 45 50 54 50 44 35 24 39 48 42 35 38 50 60 67 71 68 66 67 58 48 36 44 49 56 57 54 49 45
183 162 105 68 41 36 33 32 31 25 25 25 23 32 42 48 61 57 49 35 43 34 48 39 38 44 61 65 75 76 74 68 64 59 54 44 50 51 53 52 51 46 42
173 142 114 72 43 36 30 30 29 26 24 24 19 31 42 50 52 56 50 43 49 39 40 31 41 47 57 68 77 79 75 65 64 61 63 64 63 58 56 59 61 60 55
157 146 121 63 38 32 26 26 26 26 25 27 23 29 38 48 49 65 60 49 50 35 29 38 50 55 55 67 78 84 75 72 67 74 80 71 63 55 52 54 57 55 57
160 155 114 51 32 24 23 23 26 26 26 27 27 33 39 48 58 56 64 49 33 51 20 39 57 63 65 79 87 87 85 73 81 83 81 68 56 43 46 45 52 54 60
173 169 127 52 23 14 14 15 24 25 25 26 23 28 32 41 66 54 65 49 32 36 21 44 60 54 72 87 92 90 94 82 81 71 57 46 27 19 40 27 29 32 54
174 189 144 61 21 5 6 10 19 22 26 26 25 25 30 26 45 61 66 52 26 37 41 47 55 52 80 90 93 97 101 81 70 54 34 18 9 30 36 38 34 18 39
194 159 129 49 10 359 0 8 17 25 28 26 24 26 32 35 35 56 71 64 32 44 51 42 45 63 80 87 91 102 104 79 65 43 27 51 59 63 55 54 41 28 31
195 146 124 59 4 356 360 10 16 23 25 23 24 25 30 37 37 35 65 54 50 68 52 26 34 77 91 94 90 93 99 93 77 78 59 53 53 39 37 30 36 52 67
174 147 94 8 351 360 5 11 18 23 24 23 23 24 24 26 32 28 14 56 49 81 53 28 44 85 94 111 82 10 21 74 78 72 68 46 36 41 48 51 65 71 72
171 141 0 351 344 348 5 8 19 20 20 21 23 22 21 19 11 17 18 13 51 44 63 55 54 89 93 106 355 332 353 48 66 73 79 67 30 48 49 67 70 65 64
180 177 269 295 330 350 349 358 7 11 15 15 15 17 14 16 14 16 22 6 351 325 338 347 101 135 166 227 257 286 308 305 306 88 82 85 41 24 61 72 69 70 74
198 200 249 282 316 341 350 349 3 5 5 7 9 7 9 11 10 11 14 2 356 351 4 293 222 252 265 275 251 252 256 298 297 123 90 76 65 38 51 74 65 84 86
221 210 240 264 297 328 340 346 354 1 357 359 359 1 0 1 2 360 354 357 324 294 287 268 272 272 254 266 270 265 270 292 295 185 162 280 106 51 40 72 67 91 85
237 235 245 261 287 313 316 331 337 342 351 352 351 353 354 350 349 345 337 307 247 273 265 272 275 266 256 246 255 272 290 290 285 244 224 233 281 146 67 104 73 86 79
238 237 232 262 292 313 325 330 332 336 343 342 346 348 348 343 343 331 320 302 275 222 259 269 280 284 277 260 272 297 295 296 296 281 245 232 227 240 188 111 118 98 96
258 246 241 237 261 279 286 297 307 317 330 332 333 336 341 341 334 328 310 297 289 271 252 252 265 277 279 277 284 294 303 310 312 305 273 243 220 204 214 192 161 137 122
239 247 250 244 253 280 289 293 297 305 319 319 323 323 326 330 332 323 305 280 279 282 239 252 259 269 273 273 275 281 284 293 301 310 301 264 246 233 212 207 190 159 158
233 260 262 253 267 274 274 283 290 297 302 301 307 309 313 316 321 319 303 282 274 276 266 256 254 256 263 268 266 269 278 277 286 294 298 285 254 243 236 223 204 194 163
242 253 263 271 268 269 270 271 275 283 294 293 294 298 301 303 303 314 301 289 275 260 260 262 265 257 260 261 263 263 262 262 266 281 284 289 271 250 241 233 234 204 199
261 262 259 271 279 277 275 276 280 286 286 290 294 295 295 295 296 302 306 294 288 272 254 256 261 255 257 256 260 254 254 257 254 260 268 271 270 256 240 238 236 235 227
271 268 271 264 277 280 284 286 287 288 289 294 294 287 286 287 288 289 295 298 304 298 270 250 257 260 258 259 258 255 256 255 252 254 257 258 259 257 248 243 241 242 240
245 251 261 259 256 255 271 277 280 282 286 294 297 296 294 288 281 278 280 284 292 290 292 271 264 259 258 263 251 248 250 242 245 244 249 253 252 251 250 247 245 244 244
59 44 289 275 272 273 258 260 266 278 287 293 298 299 299 297 291 280 277 278 284 285 285 293 271 264 259 260 254 247 248 252 257 258 250 250 245 245 247 249 250 249 247
53 48 44 31 4 314 291 283 279 274 279 286 289 286 280 287 294 287 282 282 282 283 284 283 282 268 264 262 261 257 257 253 252 252 262 252 250 256 255 251 248 249 253
44 40 34 25 14 4 346 323 302 293 291 290 290 288 289 287 291 295 289 283 281 283 282 282 282 276 270 265 263 262 258 255 258 254 254 257 261 264 262 259 254 253 252